Weather Roundup
Issued by NWS Springfield, MO

Home | Current Version | Previous Version | Text Only | Print | Product List | Glossary On
Versions: 1 2 3 4 5 6 7 8 9 10 11 12 13 14 15 16 17 18 19 20 21 22 23 24 25 26 27 28 29 30 31 32 33 34 35 36 37 38 39 40 41 42 43 44 45 46 47 48 49 50
000
NZUS99 KSGF 302259
HRRSGF

HOURLY WEATHER
NATIONAL WEATHER SERVICE SPRINGFIELD MO
600 PM CDT SAT MAY 30 2015

......SGF CWA......

CITY           SKY/WX    TMP DP  RH WIND       PRES   REMARKS
SPRINGFIELD    CLOUDY    65  60  84 NW13      30.06R
JOPLIN         CLOUDY    63  58  83 N8        30.09S
WEST PLAINS    PTSUNNY   75  64  68 NW13G18   30.00R
ROLLA          PTSUNNY   69  66  90 W8        29.99S
OSAGE BEACH    CLOUDY    64  57  77 W8        30.04R
BRANSON        PTSUNNY   70  63  78 NW10G17   30.05R

......SURROUNDING SGF CWA......

CITY           SKY/WX    TMP DP  RH WIND       PRES   REMARKS
CHANUTE        CLOUDY    63  56  78 N15       30.11S
PARSONS        CLOUDY    63  56  78 N9        30.12R
COFFEYVILLE    CLOUDY    63  56  78 N10       30.11R
EMPORIA        CLOUDY    60  52  74 N12       30.13S
SILOAM SPRINGS CLOUDY    64  55  72 NW12      30.09F
HARRISON AR    PTSUNNY   73  64  73 NW12      30.03R
NEAR YELLVILLE PTSUNNY   77  64  65 NW9       29.98R

......KANSAS AND MISSOURI......

CITY           SKY/WX    TMP DP  RH WIND       PRES   REMARKS
KANSAS CTY INT CLOUDY    59  55  87 N10       30.11S
DOWNTOWN KC    CLOUDY    62  53  72 N13       30.10S
COLUMBIA       CLOUDY    66  61  84 NW15      30.02R
SEDALIA        CLOUDY    64  58  80 NW13      30.07S
ST JOSEPH      CLOUDY    63  56  78 N12       30.11F
ST LOUIS       CLOUDY    74  66  76 N8        29.93F
SPIRIT OF STL  PTSUNNY   72  67  84 NW13      29.93S
KIRKSVILLE     CLOUDY    62  57  83 N12G22    30.07S
WICHITA        PTSUNNY   66  53  63 N14       30.14S
TOPEKA         CLOUDY    61  54  77 N10       30.13F
OLATHE         CLOUDY    61  55  81 N10       30.10S

......TENNESSEE......

CITY           SKY/WX    TMP DP  RH WIND       PRES   REMARKS
MEMPHIS        PTSUNNY   82  67  60 W6        29.98F
NASHVILLE      MOSUNNY   81  68  64 S10       29.99F

......ARKANSAS.......

CITY           SKY/WX    TMP DP  RH WIND       PRES   REMARKS
FAYETTEVILLE   CLOUDY    66  63  90 NW10      30.06F
FT SMITH       CLOUDY    71  63  75 NW12      30.02F
LITTLE ROCK    CLOUDY    81  64  56 NW10      29.96R

......OKLAHOMA.......

CITY           SKY/WX    TMP DP  RH WIND       PRES   REMARKS
TULSA          CLOUDY    67  59  75 NW7       30.09F
PONCA CITY     MOSUNNY   68  55  63 N9        30.12F
MCALESTER      CLOUDY    67  60  78 N13       30.08F
OKLAHOMA CITY  PTSUNNY   72  54  53 N13       30.11F

......IOWA............

CITY           SKY/WX    TMP DP  RH WIND       PRES   REMARKS
DES MOINES     CLOUDY    62  52  69 N14       30.13S
QUAD CITIES    LGT RAIN  55  51  86 NE14      30.07S FOG

......ILLINOIS........

CITY           SKY/WX    TMP DP  RH WIND       PRES   REMARKS
QUINCY         CLOUDY    65  61  87 NW16      29.99S
CHICAGO        LGT RAIN  47  45  93 N21G38    30.07S




USA.gov is the U.S. government's official web portal to all federal, state and local government web resources and services.